Find Starlink 30497

NORAD ID: 58011 Int'l Des: 2023-153 Owner: SPXS Country: US Constellation: starlink operational
LEOCIRCULAR

Current View

Loading 3D Globe...

About Starlink 30497

Starlink 30497 (NORAD 58011) is a starlink constellation satellite (v2 mini) launched Oct 5, 2023 by SPXS of US. It operates in LEO, CIRCULAR orbit with a mass of 730.00 kg.

About Starlink 30497

Description loading...

Upcoming Passes

Passes for default location (London). Set your location on the main map for personalized predictions.

Altitude History

Loading altitude history...

Two-Line Element Set

1 58011U 23153W 26167.44623897 .00001569 00000-0 66560-4 0 9992
2 58011 43.0070 229.0003 0003005 290.3915 69.6614 15.27585003150008
Epoch: Jun 16, 2026 • Age: 36 hours

Current Status

Altitude 493.1 km
Velocity 7.62 km/s
Sub-Earth Point -37.94°S, 143.78°W
Launch Date Oct 5, 2023
Age 2.6 years
Type internet

Technical Details

Classification Payload
Mass 730.00 kg
Dry Mass 700.00 kg
Total Mass 730.00 kg
Length 0.30 m
Diameter 4.10 m
Span 29.00 m
Shape Box + pan
Manufacturer SPXS
Bus Type Starlink V2M
Phase Status In Orbit
Owner/State SPXS/US

Most Searched